FENGYUN 1C DEB

Satellite information

Favourite Embed

Satellite Type and Status

DEBRISIN ORBIT

Key statistics

Satellite FENGYUN 1C DEB at a glance.

Uptime

9714

Days in orbit

Revolutions

≈ 14.2

Per day

Orbit

SSO

Sun Synchronous Orbit

Inclination

99.0

Latest

Satellite identification and parameters

Extended collection of information and parameters for FENGYUN 1C DEB.

Object identification

Identified? True

Debris? True

Object name: FENGYUN 1C DEB

International designator: 1999-025ZR

Object number (NORAD): 30304

Object ID (CCSDS): 30304

Country: PEOPLES REPUBLIC OF CHINA (PRC)

Current information (Y/N): Y

RCS size: SMALL

Orbital parameters

Period: 101.732 minutes

Inclination: 99.0325 deg

SMA: 7218.799 km

Apoapsis: 893.966 km

Periapsis: 787.362 km

RAAN: 58.0557 deg

Eccentricy: 0.00738379

Argument of periapsis: 52.2194 deg

Mean anomaly: 308.5636 deg

Mean motion: 14.15485218 rev/day

Mean motion (dot): 0.00004192 rev/day2

B* drag term: 0.0021118945 1/REarth

Two-line elements (TLE)

Creation date: Dec. 11, 2025, 7:14 p.m.

Reference frame: TEME

Reference center: EARTH

Epoch: Dec. 11, 2025, 3:20 p.m. UTC

TLE line 0: 0 FENGYUN 1C DEB

TLE line 1: 1 30304U 99025ZR 25345.63955937 .00004192 00000-0 21119-2 0 9993

TLE line 2: 2 30304 99.0325 58.0557 0073838 52.2194 308.5636 14.15485218968038

Live tracking on map

Real-time ground track for satellite FENGYUN 1C DEB.

In-orbit conjunctions

A list of the most updated potential collisions computed for object FENGYUN 1C DEB.

Target Orbit TCA Probability of collision Miss distance Type
KITSAT B SSO 2025-01-16 17:50:17 0.0001523628 865.0 (m) PAYLOAD
FENGYUN 1C DEB SSO 2024-11-09 07:57:20 0.0002883501 331.0 (m) DEBRIS
DELTA 1 DEB SSO 2024-11-08 23:30:50 0.002596217 157.0 (m) DEBRIS
SL-14 DEB LEO 2024-07-31 21:16:48 0.0002097582 103.0 (m) DEBRIS

Associated space launch

Chinese polar orbiting meteorological satellite

FENGYUN 1C DEB was lifted into orbit during the mission ‘Long March 4B | Feng Yun 1C’, on board a Long March 4B space rocket.

The launch took place on May 10, 1999, 1:33 a.m. from Launch Complex 7.

For more information about the launch, click the button.

Launch to space Long March 4B | Feng Yun 1C
Long March 4B | Feng Yun 1C

Agency: N/A

Status: Launch Successful

Launch date: May 10, 1999, 1:33 a.m. UTC

Rocket: Long March 4B

Launch pad: Launch Complex 7

Location: Taiyuan Satellite Launch Center, People's Republic of China

...

Latest news about this satellite

There are no fresh news available about this satellite. Check back as we update our databases every day.


Newsletter sign-up

Weekly statistics, charts and insights to help you stay on top of the space industry.